GFSWCAN_925_thetae_021.txt.gz
Theta_e
291 291 291 291 292 292 292 294 296 298 299 300 301 301 301 302 302 302 301 302 302 304 303 303 303 304 304 305 308 304 305 308 309 308 308 312 316 315 315 315 315 316 320 316 317 324 325 319 320 323 320 320 325 323
291 291 291 291 291 291 292 294 297 299 299 300 301 301 302 302 302 302 302 301 303 303 302 303 303 303 303 303 305 305 305 306 307 308 311 312 316 314 314 316 312 316 315 317 320 326 316 315 314 314 314 315 323 326
291 291 291 292 292 291 292 295 298 299 298 300 301 302 303 302 302 302 302 301 300 302 303 299 302 303 303 304 304 306 302 307 308 306 309 310 313 313 317 316 313 313 314 317 316 322 318 314 313 312 314 313 314 323
291 291 290 291 292 292 293 297 299 296 297 300 302 303 303 303 302 302 302 301 301 303 306 302 303 303 303 303 304 304 304 305 307 308 308 310 311 310 313 311 312 311 313 314 315 317 315 314 312 312 314 313 313 318
291 291 291 291 292 292 294 299 296 295 297 300 303 304 304 303 302 301 301 301 301 301 303 303 303 304 306 305 305 304 304 302 303 309 311 310 308 310 312 312 313 313 313 315 316 316 314 314 312 312 313 313 313 315
291 291 291 291 291 292 293 299 297 294 297 301 303 304 304 302 301 301 299 306 304 302 304 303 301 305 305 307 308 308 306 304 307 309 309 306 306 311 313 313 312 312 313 313 315 313 313 313 313 312 311 313 313 318
291 291 291 291 291 292 292 299 296 294 298 301 306 307 306 304 302 300 301 305 305 303 304 305 305 305 306 309 309 309 306 306 307 307 306 305 305 309 311 311 309 312 313 313 313 314 314 313 312 311 311 312 313 321
291 291 291 291 291 291 293 299 293 293 298 302 306 307 307 305 304 303 306 306 303 303 303 306 306 306 306 309 309 308 307 305 304 305 303 305 303 306 310 308 307 307 308 313 314 314 312 311 313 312 311 313 315 320
290 291 291 291 291 291 294 297 292 293 298 303 306 307 306 305 302 306 306 306 303 304 305 305 307 308 305 309 308 308 306 309 303 307 308 306 304 307 309 309 307 307 307 307 308 309 313 313 313 313 312 313 316 320
291 291 292 292 291 292 296 294 292 293 299 304 306 306 304 308 306 305 305 304 306 306 306 307 306 305 306 309 309 306 306 307 310 309 307 308 305 307 307 308 308 307 306 306 308 312 314 314 312 312 313 312 313 319
294 291 291 294 292 293 295 293 292 292 300 304 300 302 306 308 307 302 304 306 305 307 307 307 306 309 307 309 308 305 306 304 307 311 310 313 313 311 309 308 308 308 307 306 307 308 308 310 312 311 312 314 312 313
300 297 292 295 294 293 295 293 291 294 297 300 301 302 303 303 302 305 301 304 306 307 307 308 307 307 308 304 305 304 306 304 309 307 308 314 312 309 308 308 308 310 309 308 307 309 309 310 311 311 312 313 314 312
301 295 296 297 296 294 295 293 292 296 301 304 304 306 302 301 301 308 307 306 306 304 305 305 305 306 305 302 306 305 304 307 306 310 312 311 309 307 308 310 310 310 311 309 310 310 311 313 312 311 312 313 312 312
302 299 298 302 296 296 297 293 295 300 303 306 307 301 301 303 301 302 303 304 303 303 304 302 304 305 303 303 306 307 306 305 303 310 311 309 309 309 309 310 310 310 311 311 311 313 314 311 311 311 312 313 312 315
301 300 302 300 296 296 298 295 300 301 305 308 303 302 302 303 303 304 303 303 302 302 302 304 303 304 300 305 306 305 303 299 306 310 309 309 309 310 311 311 311 310 309 309 309 310 312 314 313 310 312 312 313 318
298 297 301 296 298 297 296 299 304 306 308 309 306 306 303 305 305 303 303 302 301 302 302 302 303 304 305 306 305 306 310 310 310 305 309 308 308 309 310 311 311 311 311 309 308 308 311 313 316 316 313 312 313 316
296 298 300 300 296 296 299 301 305 309 311 307 303 303 303 303 303 303 301 302 300 302 304 304 306 307 301 300 301 306 310 307 307 308 307 306 307 308 309 310 310 311 310 311 309 308 310 312 314 316 316 316 319 316
295 298 300 299 294 294 298 302 306 309 308 305 305 303 302 302 302 300 301 300 302 303 304 307 303 304 306 305 299 303 304 305 305 304 304 305 305 307 308 309 310 310 310 312 312 312 312 310 312 313 313 317 317 319
297 297 300 300 294 295 297 303 307 307 305 304 302 302 302 302 300 301 301 301 301 301 303 304 306 303 304 304 303 304 305 305 304 304 304 304 304 304 306 307 308 310 311 310 311 312 313 314 312 313 314 316 315 317
297 298 301 296 294 298 303 303 307 304 303 303 302 302 302 301 301 301 302 302 301 302 304 305 304 303 304 304 303 305 305 303 302 304 304 304 304 303 304 304 306 307 310 310 310 309 312 312 313 313 312 312 314 314
295 297 297 295 296 296 299 302 305 303 303 305 304 303 304 301 303 303 304 302 303 302 303 302 302 302 302 302 304 304 302 301 302 303 304 303 303 303 303 304 304 306 306 310 311 310 310 311 311 311 311 310 309 310
294 295 295 295 298 300 298 299 302 302 301 302 302 302 302 301 302 302 301 304 303 302 302 301 301 303 303 304 304 305 304 304 304 303 304 304 303 302 301 301 302 303 303 305 308 310 309 308 311 311 310 310 310 308
295 294 294 294 302 301 300 303 306 304 303 302 299 303 301 300 302 301 304 304 304 302 300 301 301 302 303 305 305 304 305 304 302 302 302 303 304 303 303 302 302 301 302 304 305 306 307 308 308 308 309 308 309 309
295 296 298 299 300 299 301 301 299 299 297 299 298 304 304 302 300 300 303 302 301 302 303 303 301 301 302 302 302 301 303 303 303 304 304 303 303 303 304 303 303 304 304 305 306 306 307 308 307 307 308 306 306 308
298 295 294 295 296 302 303 303 302 298 304 302 303 303 300 300 300 302 303 302 302 302 302 301 300 300 302 302 302 303 305 304 302 303 303 304 303 304 304 303 302 302 305 306 305 306 307 307 307 307 307 306 305 305
294 292 293 297 297 300 301 303 302 302 301 302 301 302 296 300 303 303 303 301 299 300 302 302 300 299 299 300 301 301 302 303 303 300 301 302 302 301 299 299 299 301 303 305 305 306 306 306 306 305 306 306 305 304
292 292 293 295 295 298 297 299 298 298 303 303 298 300 301 303 303 302 299 300 301 301 303 303 302 299 300 299 301 301 302 302 303 303 303 302 301 300 299 298 297 300 303 304 306 306 305 305 304 303 301 301 301 302
294 294 296 294 296 294 299 297 299 300 300 301 302 304 304 302 302 300 299 302 303 304 304 304 304 302 301 299 300 302 303 303 302 301 300 299 299 300 300 300 300 302 303 304 305 304 303 302 301 300 299 297 297 298
295 293 294 296 296 295 297 298 298 299 301 302 302 302 303 302 300 300 300 301 302 301 298 295 299 299 299 299 300 300 300 299 298 298 298 295 293 295 296 299 299 300 302 302 303 303 302 301 300 298 296 295 294 295
295 293 294 295 296 296 295 298 298 297 297 297 300 301 301 302 301 300 299 299 299 298 297 297 299 298 296 296 295 294 296 298 298 297 294 294 294 296 296 296 298 299 300 301 301 300 298 297 296 295 294 293 292 292
293 294 295 294 296 297 298 296 295 295 295 295 296 297 298 299 300 300 299 298 299 300 300 299 299 299 297 296 294 292 291 293 295 296 297 297 296 296 295 296 297 298 299 298 298 297 295 294 292 290 289 289 289 289
293 295 296 296 296 295 294 295 295 296 297 296 297 297 300 301 302 298 297 298 297 297 298 298 297 295 297 296 296 295 293 291 291 291 292 293 293 293 294 295 296 297 298 297 295 293 292 291 289 288 287 286 285 285
296 297 296 296 295 297 295 295 296 296 296 294 299 298 298 299 299 295 296 297 297 297 297 297 296 296 296 295 292 289 288 287 287 288 289 290 292 293 294 294 295 295 295 293 291 290 288 287 286 286 285 285 284 284

GFSWCAN_925_thetae_024.txt.gz
Theta_e
291 291 291 291 291 292 292 292 296 298 296 298 301 301 302 302 302 302 302 301 301 302 300 300 301 302 304 305 307 306 307 308 306 309 307 306 311 315 315 314 315 318 318 314 313 318 324 315 315 318 315 313 314 314
291 291 291 291 291 291 292 293 298 297 294 298 301 301 302 302 302 303 303 301 301 301 302 301 301 301 301 302 303 305 307 306 308 307 309 308 314 313 314 315 312 316 315 317 318 322 317 314 315 314 311 312 313 313
291 291 291 291 292 291 291 292 297 299 294 297 300 302 302 302 302 303 303 301 300 301 300 300 302 303 302 303 303 305 305 305 307 307 308 308 311 313 313 316 314 313 312 316 316 319 315 315 315 313 311 312 312 312
290 291 291 292 291 292 291 291 293 299 293 295 300 302 303 303 303 302 302 301 300 301 304 303 302 303 305 304 303 302 304 305 306 307 309 309 312 311 312 310 312 311 312 314 314 315 314 315 313 312 311 312 311 312
292 290 291 292 291 291 292 291 294 298 292 294 299 302 303 305 302 302 301 301 301 301 305 304 303 304 306 306 306 305 304 304 306 308 309 309 308 311 312 310 312 311 312 315 316 313 314 313 312 312 312 312 311 312
300 295 291 292 293 292 292 292 296 294 292 293 298 303 306 304 302 301 297 303 301 301 304 305 302 303 304 305 307 307 305 305 306 309 309 307 304 310 312 313 308 310 311 310 313 312 312 312 313 312 310 311 311 312
303 303 297 291 292 294 292 292 295 294 292 293 300 304 306 306 303 300 300 303 305 302 303 306 304 304 305 307 308 309 307 306 307 309 308 304 304 306 306 308 308 308 308 311 312 312 313 313 313 312 311 311 311 313
305 304 304 295 292 293 294 293 294 295 292 294 303 305 307 305 304 304 305 304 303 303 304 305 305 307 305 308 309 306 308 306 306 306 302 303 302 303 306 308 308 308 307 309 309 308 309 310 312 313 311 311 311 313
305 305 305 302 298 293 296 293 295 293 292 298 304 306 305 304 302 305 305 304 303 302 305 305 306 308 305 308 307 305 305 310 305 307 310 308 305 307 309 309 309 309 308 307 307 307 307 309 311 312 311 311 312 312
305 305 305 304 302 296 297 295 295 294 293 299 305 304 302 305 305 305 303 302 303 304 305 307 305 306 305 309 309 304 303 307 311 309 308 309 308 308 308 308 308 308 308 308 307 308 308 311 312 312 312 312 311 312
304 304 304 304 305 301 299 296 295 295 294 298 299 300 302 306 305 300 303 304 303 305 305 305 304 305 307 309 307 304 304 304 308 310 310 311 311 308 309 309 308 308 309 308 308 307 306 307 308 309 310 310 310 311
303 303 304 304 305 304 298 296 295 295 295 297 297 299 302 301 301 304 299 301 305 306 304 305 305 304 307 303 302 303 305 304 307 306 310 313 311 310 310 311 309 310 310 311 310 308 307 308 309 309 310 311 310 311
300 300 303 303 304 303 297 297 296 295 297 302 302 305 301 300 299 307 307 306 305 304 303 302 303 303 303 299 302 299 300 306 304 306 310 312 309 309 309 310 312 311 310 310 311 309 308 310 310 310 311 312 310 311
300 300 299 303 303 298 296 299 298 296 299 303 306 305 303 303 301 300 301 303 302 301 302 301 302 303 300 302 305 303 304 300 297 301 309 309 308 308 308 310 311 311 311 310 309 309 310 311 313 314 314 313 311 311
299 299 299 302 298 298 301 301 300 299 299 305 302 304 304 303 302 302 301 302 302 301 300 302 301 302 299 304 304 302 303 296 303 306 309 307 306 306 307 309 310 310 310 310 310 308 308 309 312 313 310 310 310 311
298 298 300 297 298 300 301 300 300 303 304 306 305 305 303 304 304 303 302 301 299 299 300 300 302 303 303 305 299 305 308 303 308 305 304 305 305 305 307 308 308 309 310 311 310 308 307 309 311 313 314 315 312 311
298 298 299 299 298 300 300 298 301 306 307 308 303 302 301 302 303 302 301 302 298 301 303 302 306 305 299 296 300 305 309 303 303 305 305 304 303 304 304 307 307 309 310 309 310 312 311 311 310 311 313 313 313 313
297 298 298 298 297 295 295 299 302 306 309 306 303 302 300 301 301 301 300 299 301 301 302 305 301 303 297 297 295 297 300 301 301 304 303 302 302 303 303 306 306 306 309 310 309 310 312 312 312 311 311 312 314 315
298 298 298 299 296 295 295 299 303 305 305 302 301 300 300 300 299 300 299 299 300 300 302 303 305 303 302 301 302 301 301 301 302 302 301 302 303 302 302 303 304 304 306 309 310 310 310 310 311 312 311 312 314 315
297 297 298 297 294 296 300 300 304 303 303 302 300 300 300 300 299 299 299 299 300 301 303 305 304 302 302 302 301 302 302 301 300 302 302 302 303 303 302 301 301 303 304 308 310 309 309 308 308 309 310 309 310 311
296 296 296 295 295 295 299 299 302 301 301 303 302 301 302 299 300 300 300 299 301 300 302 301 301 301 300 301 302 302 301 300 300 301 303 302 301 301 301 302 302 303 302 304 306 307 309 309 309 309 309 309 309 309
295 296 296 295 296 298 297 297 297 300 301 301 300 301 301 297 300 300 299 302 301 301 300 300 301 301 300 302 302 303 304 303 302 301 301 302 302 301 300 300 299 300 300 301 303 305 307 307 307 308 307 308 308 309
295 294 294 294 298 301 301 301 304 302 301 300 298 301 300 298 299 299 301 300 301 300 300 299 300 301 302 303 305 304 304 303 301 301 301 301 302 302 301 300 300 300 300 302 304 305 306 307 307 308 308 307 307 308
293 294 297 297 297 298 299 301 299 297 297 300 299 303 302 300 298 299 301 300 301 300 300 301 299 301 301 301 301 300 301 302 302 302 302 301 300 301 303 302 301 302 302 304 305 306 306 307 307 307 306 306 307 307
297 296 296 295 296 300 302 302 301 297 304 302 303 302 299 298 299 301 302 300 299 299 299 300 299 299 303 302 301 302 303 303 301 301 301 302 302 302 301 301 301 301 302 304 304 305 305 305 305 305 304 303 304 303
296 292 294 296 297 299 301 303 301 301 301 301 300 300 294 298 302 303 301 300 298 297 298 300 300 298 299 300 301 300 302 303 302 299 301 302 302 300 298 298 298 300 302 303 304 304 303 303 302 301 301 302 301 301
292 290 292 294 295 297 297 298 297 298 302 302 298 299 299 303 302 300 297 297 298 298 301 301 300 299 299 298 301 302 302 302 302 302 301 300 299 299 299 297 297 299 301 304 304 303 302 301 300 299 298 297 297 298
294 293 295 294 295 293 298 297 299 300 300 299 300 302 303 302 300 299 298 299 298 298 299 299 300 301 301 301 300 300 301 302 302 301 300 298 298 299 299 299 301 302 303 303 302 302 301 299 298 297 295 294 293 293
295 292 293 295 295 293 295 297 297 296 298 301 301 302 303 300 299 299 300 300 300 297 296 297 297 297 297 298 299 301 301 300 298 298 298 295 293 295 296 298 299 300 301 300 300 299 299 298 296 295 294 293 293 293
292 292 294 294 296 296 295 295 296 297 298 299 298 299 300 300 301 301 300 300 298 296 296 298 298 298 295 295 293 294 295 296 297 296 295 293 294 296 296 296 298 299 300 299 299 298 297 295 294 293 292 291 290 291
292 294 295 294 296 295 295 296 296 294 295 295 295 296 296 296 298 299 298 298 299 298 298 298 298 297 297 295 294 294 293 294 296 296 296 296 296 295 296 296 297 298 298 298 297 295 293 291 290 288 288 287 287 288
292 294 295 296 294 293 295 294 294 295 296 295 295 295 296 298 300 296 294 296 297 297 298 298 296 294 296 296 294 294 294 291 292 293 293 294 293 294 294 295 296 297 296 295 294 292 290 288 287 286 285 284 284 284
291 293 294 295 294 296 296 295 295 296 295 294 297 297 298 298 299 295 294 294 294 295 295 294 294 293 292 292 291 290 290 289 289 289 291 292 292 293 294 294 295 294 293 291 290 289 288 287 285 285 284 283 283 283

GFSWCAN_925_thetae_030.txt.gz
Theta_e
305 305 302 301 300 296 293 294 295 294 294 297 295 299 300 302 302 303 304 304 303 303 303 304 303 304 304 305 307 307 308 308 309 312 312 314 313 314 314 315 314 316 316 316 316 322 327 321 323 328 324 322 322 323
306 305 305 304 304 304 298 294 294 296 295 295 296 296 300 301 303 303 305 305 302 302 304 303 303 302 302 304 305 304 307 307 307 311 313 312 316 315 317 321 316 322 319 321 319 324 319 318 321 319 319 321 321 322
306 306 305 305 305 304 305 300 296 296 297 296 296 295 300 301 302 303 305 304 303 303 305 307 307 304 303 304 303 306 306 307 307 308 309 310 313 312 318 317 317 316 316 319 320 320 319 316 316 316 317 319 320 320
304 306 305 305 305 305 304 305 301 300 298 296 297 299 300 301 302 303 305 305 304 303 305 309 306 306 306 304 304 302 303 303 307 307 310 310 311 312 314 311 313 312 313 317 318 318 319 316 315 315 316 317 319 320
304 305 304 305 305 305 304 305 304 303 300 297 299 300 300 301 301 303 304 304 303 304 309 308 306 307 306 306 305 303 303 303 307 309 310 311 310 311 313 313 314 314 316 317 319 314 316 316 314 314 316 315 316 319
304 304 303 304 305 304 304 304 304 304 299 300 299 298 299 304 303 304 308 305 304 302 304 308 308 309 307 308 309 307 306 307 308 309 310 309 310 312 313 313 313 311 311 312 314 314 314 314 314 314 315 313 315 318
304 304 303 303 303 304 304 304 304 302 300 302 297 296 303 306 305 308 309 306 304 302 304 308 311 309 308 309 310 308 308 309 309 310 310 312 311 313 311 312 312 311 309 310 310 312 315 315 316 313 312 313 314 318
302 301 302 303 302 302 303 304 303 301 301 303 295 303 305 305 305 307 306 304 303 305 305 308 313 312 310 312 312 310 311 310 309 311 311 310 310 312 315 311 309 309 308 309 311 311 312 312 313 312 313 313 315 318
300 301 301 301 301 301 302 303 303 302 302 303 296 304 305 306 309 306 304 303 304 306 307 307 310 312 311 312 311 310 310 313 310 311 309 309 310 314 309 309 308 308 308 308 308 309 311 313 313 312 313 313 316 318
299 299 300 301 301 301 301 301 301 300 302 302 302 307 311 307 303 304 305 306 305 307 308 309 309 311 310 312 311 311 310 311 313 313 310 311 314 311 311 312 311 310 310 310 311 312 313 315 314 314 314 313 314 315
297 298 300 300 301 300 300 300 299 299 302 303 304 304 301 301 305 309 309 310 309 310 309 310 312 312 310 311 310 308 310 311 315 314 312 314 313 312 311 310 310 310 310 310 311 312 312 313 313 315 314 314 313 315
294 296 298 299 299 300 299 300 297 301 302 301 300 298 299 304 310 311 312 311 312 311 313 313 312 311 311 308 309 309 309 311 315 311 313 313 313 312 310 310 311 311 310 311 311 312 312 313 312 313 314 314 314 314
295 295 296 298 299 299 299 298 298 299 299 301 300 302 307 310 310 312 310 310 311 310 310 310 310 312 310 309 310 310 312 313 311 315 314 313 313 311 311 311 312 311 311 311 312 312 312 312 312 313 314 314 315 317
294 295 296 297 298 299 298 299 299 299 300 304 306 310 312 312 312 313 312 309 309 309 309 309 310 313 311 311 309 310 311 310 314 315 315 313 313 311 311 311 312 312 311 311 313 312 311 312 314 314 315 316 317 317
294 296 297 298 299 298 299 299 299 299 302 305 307 310 311 311 311 310 310 310 310 310 310 310 310 311 312 311 309 309 311 313 313 315 314 313 312 312 312 312 312 312 312 311 312 314 314 315 316 317 317 317 317 316
293 294 298 297 297 297 298 298 300 301 302 304 307 312 312 311 309 310 310 310 310 310 310 310 310 312 312 311 310 309 311 316 314 314 313 312 312 311 311 311 311 312 313 312 312 312 313 313 313 314 315 315 316 317
293 297 296 296 297 298 298 299 301 302 305 308 311 310 309 310 309 308 308 308 310 310 309 308 309 310 311 313 311 314 313 311 313 312 311 312 312 312 311 310 311 311 313 312 311 311 311 311 310 310 312 311 312 315
293 294 295 295 297 298 299 298 302 305 306 309 311 311 311 310 310 309 309 309 310 309 309 308 309 311 312 314 316 313 314 313 312 311 311 311 311 311 309 310 309 310 312 311 311 310 311 311 310 310 310 310 310 310
292 293 294 296 297 297 300 301 302 305 307 309 310 311 310 309 309 309 309 309 310 309 309 309 309 310 311 310 308 308 310 310 309 310 310 311 311 311 310 309 307 308 310 311 311 311 310 310 311 309 309 310 311 309
292 294 295 296 296 297 301 302 301 304 307 310 309 310 310 310 309 309 309 309 309 309 309 309 309 309 309 309 309 309 309 309 309 309 309 310 309 309 309 309 309 307 308 308 309 309 310 311 310 310 309 308 308 308
293 296 295 296 296 296 298 303 303 303 305 306 307 309 309 309 309 309 309 309 309 308 308 308 308 308 308 308 308 309 309 310 309 308 308 308 309 309 308 308 308 308 308 308 309 310 310 310 310 310 309 309 306 305
293 294 295 296 297 298 299 301 304 302 302 305 306 307 307 308 308 308 308 308 308 309 309 308 308 308 307 308 310 310 308 309 309 308 306 306 309 309 308 307 307 307 307 307 308 309 309 308 309 309 307 307 306 305
292 293 295 296 298 299 300 301 303 303 304 304 304 305 307 307 306 305 307 308 308 308 308 307 307 307 307 307 308 309 310 310 310 309 308 308 307 307 306 306 306 306 307 306 307 307 308 308 308 307 307 307 306 305
294 295 297 296 298 300 300 303 303 304 306 306 307 306 307 308 307 307 307 307 308 307 307 307 307 307 308 308 308 309 310 309 309 309 308 307 308 307 304 304 305 305 305 306 307 307 308 307 306 306 306 305 305 304
298 297 297 297 298 301 302 301 303 305 304 305 306 307 307 306 307 306 306 307 307 306 306 306 307 307 308 308 309 309 310 309 310 309 307 306 305 304 304 303 304 305 305 305 306 307 307 306 305 305 304 304 304 303
295 297 297 298 299 300 302 301 301 303 304 304 304 305 306 306 306 306 306 306 306 306 306 306 306 307 307 307 307 309 310 308 308 309 306 304 303 302 302 302 303 305 305 305 305 306 306 305 304 304 303 302 301 301
296 296 297 298 299 300 301 302 302 303 303 304 305 306 306 307 306 305 304 305 305 304 304 303 304 306 307 306 306 307 308 307 307 306 305 303 304 303 301 302 304 305 304 304 304 304 303 303 303 302 301 299 298 298
294 294 296 298 298 299 299 300 300 302 303 304 306 307 306 305 306 305 305 304 303 302 302 303 303 303 305 306 306 308 307 306 306 305 304 304 303 303 303 303 303 303 303 301 302 302 302 302 301 300 299 298 297 295
294 295 296 296 296 297 298 298 299 300 301 301 303 303 302 303 304 304 303 303 302 301 302 302 303 303 303 305 306 306 306 305 305 306 305 305 304 302 302 302 302 302 301 298 298 298 298 298 298 298 297 297 296 295
295 295 295 296 295 296 296 297 297 298 298 299 299 300 301 301 302 302 301 301 301 302 301 301 302 302 304 305 304 304 304 305 304 304 304 304 304 301 300 301 302 302 301 301 299 297 295 297 296 296 295 295 294 294
295 295 295 296 296 296 296 297 297 298 298 298 298 300 300 300 300 297 294 296 299 300 301 302 302 301 302 303 304 304 302 300 300 300 301 301 300 300 300 300 300 301 300 300 299 298 297 296 295 294 294 293 291 291
296 295 296 296 296 297 297 298 298 298 298 299 299 298 299 299 302 296 290 291 293 295 296 299 301 298 297 297 297 297 298 297 296 296 297 297 298 298 298 299 299 299 298 298 297 296 295 295 294 293 291 291 290 290
295 296 297 297 297 297 297 297 298 299 299 301 300 300 300 301 296 292 289 289 289 291 290 290 290 290 290 291 292 292 292 291 292 293 294 294 295 296 296 297 297 296 296 295 295 294 293 292 292 291 290 289 288 287

GFSWCAN_925_thetae_033.txt.gz
Theta_e
305 306 306 306 305 305 305 305 305 301 298 300 297 300 300 300 301 303 306 307 306 307 307 307 306 306 304 305 308 308 310 311 312 312 314 314 315 315 317 317 319 315 317 319 320 325 335 323 326 329 327 325 325 326
305 304 304 305 306 305 305 305 305 305 303 302 297 298 302 301 300 302 306 308 306 306 307 305 306 306 304 304 304 306 308 308 310 312 313 312 314 315 316 322 316 320 320 324 324 326 322 320 322 321 322 324 325 326
306 305 304 304 305 305 305 305 305 305 305 303 298 299 301 301 301 301 306 306 305 307 308 309 309 307 305 303 304 307 307 307 307 308 310 312 314 313 319 318 316 315 317 321 322 320 320 320 319 319 320 322 322 324
304 304 304 304 304 303 304 305 304 305 305 303 299 301 301 301 301 301 304 307 306 306 308 312 309 307 307 306 304 303 304 305 304 309 312 313 313 313 315 315 314 314 316 319 320 316 319 319 319 318 318 320 319 322
304 304 304 304 303 303 304 303 304 304 304 303 299 301 300 299 300 302 305 307 306 307 311 311 309 310 310 309 308 305 304 304 306 311 312 313 312 314 315 315 317 315 316 318 318 316 316 316 317 317 318 319 318 320
304 303 301 302 302 302 302 302 303 304 304 303 300 301 295 302 303 305 309 308 307 305 307 310 310 311 310 310 311 307 306 307 308 312 311 311 313 315 316 318 314 312 314 313 314 313 313 315 315 316 318 317 317 318
301 300 300 301 302 301 302 301 302 303 304 304 301 300 300 305 305 310 311 309 307 305 307 310 313 312 311 311 312 312 310 311 311 312 313 314 313 314 315 318 312 312 312 312 312 312 314 314 315 315 316 317 316 317
298 298 299 300 301 301 301 301 301 301 303 304 301 298 304 306 306 307 307 305 306 307 308 310 314 312 313 313 313 311 314 312 311 313 313 313 313 313 314 313 312 311 311 311 312 312 313 313 313 314 315 316 317 319
296 298 298 299 300 300 301 302 301 300 303 302 301 303 306 307 310 307 305 304 305 308 309 309 313 319 312 313 312 312 311 314 312 314 313 313 314 315 313 313 313 311 311 311 311 313 312 313 314 315 315 316 317 318
294 295 296 297 299 300 300 300 301 300 302 305 304 309 313 306 302 305 306 307 307 309 309 312 311 315 312 312 312 313 313 314 316 314 312 316 315 313 312 311 311 311 310 310 312 313 313 313 315 315 315 316 316 317
295 295 295 296 297 298 299 300 300 299 305 307 308 309 305 302 305 309 310 310 311 311 312 313 312 313 312 314 313 311 312 314 316 315 314 315 316 313 311 311 311 312 311 312 312 312 313 315 314 315 315 315 316 316
294 294 294 296 296 297 299 300 299 301 302 302 301 300 302 305 309 312 314 314 314 313 314 312 312 312 314 312 312 311 312 314 316 313 315 315 314 312 311 311 312 312 311 312 312 313 314 313 313 313 315 316 316 315
293 293 295 296 296 297 298 298 299 299 300 303 302 303 306 312 315 313 313 313 312 312 311 312 312 312 312 311 312 311 312 315 314 316 315 315 314 312 311 311 312 313 312 312 312 311 312 313 312 314 316 315 316 317
293 293 293 294 297 299 299 298 298 299 303 307 309 314 312 313 313 315 314 311 311 309 310 310 310 313 313 312 312 312 312 313 314 317 317 314 313 312 312 311 311 313 313 312 312 314 315 315 316 316 316 316 317 318
293 293 293 297 297 297 297 298 298 300 305 309 309 310 311 311 312 312 311 311 310 310 310 311 311 311 314 312 311 311 312 315 315 318 316 314 313 313 312 312 311 312 313 313 312 312 313 313 314 316 316 316 317 317
292 294 298 296 296 295 297 299 300 303 305 308 309 313 314 313 313 312 311 311 311 311 310 310 310 310 312 313 313 314 314 317 317 316 314 314 313 313 312 311 310 311 312 313 312 312 312 312 312 313 313 313 315 316
292 297 295 294 294 295 298 299 302 303 304 308 311 311 312 312 314 313 311 310 310 311 311 310 310 309 312 312 315 318 320 316 314 312 313 313 313 312 311 311 310 311 311 311 311 311 311 312 311 311 311 311 311 312
293 294 293 293 294 298 300 300 304 306 306 309 312 312 313 314 314 312 312 311 310 310 310 310 310 311 315 316 314 316 317 313 311 311 311 311 311 311 310 310 309 309 310 310 310 311 311 311 312 313 311 310 309 308
291 291 292 293 295 297 301 303 304 307 309 309 310 311 311 312 312 312 311 311 311 310 310 310 311 311 312 311 311 310 311 311 310 311 311 311 311 311 310 309 309 309 309 310 310 310 311 311 311 311 310 310 310 308
291 291 292 295 296 299 301 304 303 306 307 308 309 310 311 312 312 312 312 312 311 310 310 310 311 311 311 311 311 311 310 310 311 309 310 310 310 309 310 309 309 309 309 309 309 309 309 311 311 310 310 309 309 308
292 294 294 295 298 298 300 303 304 306 306 307 308 308 310 311 312 312 312 311 311 311 311 311 311 311 311 311 309 310 310 310 310 309 309 310 309 308 308 308 308 308 308 309 309 309 309 309 310 309 309 308 308 306
293 293 293 296 297 299 300 300 303 304 305 305 305 305 307 308 309 310 311 312 311 311 311 311 311 311 310 310 309 309 309 309 309 308 307 306 307 309 310 308 308 308 307 307 307 308 308 309 307 308 308 308 307 306
294 293 293 295 297 298 299 300 301 303 303 305 306 307 308 309 309 309 310 310 311 311 310 310 310 309 310 309 308 308 309 309 310 310 309 308 308 308 307 307 307 306 307 306 307 307 309 307 307 307 307 307 306 306
293 294 296 297 296 297 299 301 303 304 304 305 305 306 307 308 308 309 309 310 310 310 310 309 309 309 309 309 309 309 310 308 309 309 309 309 308 309 307 305 305 305 305 306 306 308 308 308 306 306 306 306 306 305
294 297 297 297 298 300 299 299 302 303 303 304 304 305 307 307 309 309 308 308 309 309 309 308 308 308 309 309 309 309 307 308 309 309 309 307 308 308 306 305 305 305 304 305 306 307 307 306 306 306 305 304 304 303
293 296 298 297 298 298 299 299 300 301 302 303 305 305 306 308 308 309 307 307 308 308 308 307 307 308 308 308 309 309 310 309 309 309 308 307 306 306 305 303 305 306 304 304 304 305 305 305 305 305 305 303 300 301
292 295 297 297 298 299 300 300 301 302 302 304 305 306 306 306 306 307 308 308 307 306 306 306 306 307 307 308 307 307 307 308 308 309 308 307 305 303 303 304 304 304 304 303 303 303 303 303 304 303 303 302 300 299
293 293 293 295 297 298 298 299 299 300 303 304 304 306 308 307 308 308 307 306 305 305 305 304 304 305 306 306 306 306 306 307 308 307 306 305 304 302 302 303 303 303 303 302 303 303 303 303 303 302 302 301 300 297
294 295 294 295 296 297 298 298 299 300 299 300 302 304 303 302 301 304 305 304 303 303 304 303 303 304 305 306 307 307 307 308 308 308 307 306 305 303 303 303 302 303 302 300 299 299 299 300 300 301 300 300 299 297
295 294 295 296 295 296 297 297 297 298 299 299 299 300 300 301 302 301 302 302 302 303 302 302 302 302 304 306 307 308 307 307 307 307 306 305 304 303 303 303 303 303 302 302 301 299 297 298 298 299 298 298 297 297
295 296 295 296 297 297 296 297 298 298 298 299 299 299 300 300 299 292 292 294 299 301 301 302 303 303 303 304 304 307 306 304 304 304 305 304 304 304 303 302 302 302 302 301 301 300 299 299 298 298 297 296 294 295
296 297 297 298 298 297 297 297 298 298 299 299 300 300 301 301 300 294 289 290 293 293 292 293 295 298 300 300 300 300 302 301 301 301 302 302 302 301 301 300 301 301 301 300 299 299 298 298 297 296 295 294 294 292
297 297 297 298 298 298 298 299 299 299 299 300 300 301 302 299 296 294 290 289 288 290 290 290 290 291 292 294 295 294 293 292 293 295 298 298 298 299 300 300 300 299 299 298 298 297 297 296 295 294 293 292 291 290